CAPE
8 3 0 0 0 13 27 370 454 371 198 202 67 34 134 191 167 125 103 208 178 179 128 91 46 96 78 55 107 48 198 627 240 302 475 1030 1509 2165 1970 2080 2133 2044 1923 1983
40 1 0 0 0 0 24 294 365 371 298 153 7 112 19 2 189 172 92 128 135 99 70 102 92 88 58 75 42 112 152 89 96 104 335 584 910 1330 1440 1424 1499 1978 2126 2112
4 11 3 0 2 19 179 573 499 363 312 264 52 0 4 0 13 65 105 113 104 97 66 20 18 2 0 0 21 34 18 32 66 114 288 393 474 738 848 999 1322 1381 1414 1552
0 26 22 0 0 0 5 699 290 307 280 122 6 13 0 0 0 0 3 2 0 29 87 96 83 71 27 0 0 0 1 28 20 58 118 203 221 465 826 770 807 934 1198 1379
0 0 0 1 0 0 289 673 384 240 163 73 17 1 3 0 0 0 0 0 0 0 0 17 46 38 34 33 18 20 37 48 40 81 79 80 105 115 308 474 608 773 800 873
0 1 0 0 0 0 36 445 371 239 120 32 18 5 0 0 0 0 0 0 0 0 0 0 0 0 0 8 15 37 40 9 48 60 17 28 30 65 68 88 220 385 451 651
0 0 2 0 0 0 0 33 355 225 156 54 0 2 0 0 0 0 0 0 0 0 0 0 0 0 0 0 0 0 0 0 0 0 0 0 0 0 0 0 17 49 71 126
0 0 0 0 0 6 70 24 37 62 31 0 0 0 0 0 0 0 0 0 0 0 0 0 0 0 0 0 0 0 0 0 0 0 0 0 0 0 0 0 0 0 1 60
131 9 0 0 0 1 7 40 24 40 30 4 0 0 0 0 0 0 0 0 0 0 0 0 0 0 0 0 0 0 0 0 0 0 0 0 0 0 0 0 0 0 0 0
88 82 1 0 0 0 15 29 17 13 14 9 0 0 0 0 0 0 0 0 0 0 0 0 0 0 0 0 0 0 0 0 0 0 0 0 0 0 0 0 0 0 0 0
4 16 0 0 0 0 0 0 0 0 0 0 0 0 0 0 0 0 0 0 0 0 0 0 0 0 0 0 0 0 0 0 0 0 0 0 0 0 0 0 0 0 0 0
0 34 28 36 0 0 0 0 0 0 0 0 0 0 0 0 0 0 0 0 0 0 0 0 0 0 0 0 0 0 0 0 0 0 0 0 0 0 0 0 0 0 0 0
32 15 4 2 1 16 0 0 0 0 0 0 0 0 0 0 0 0 0 0 0 0 0 0 0 0 0 0 0 0 0 0 0 0 0 0 0 0 0 0 0 0 0 0
6 16 33 20 0 0 0 0 0 0 0 0 0 0 0 0 0 0 0 0 0 0 0 0 0 0 0 0 0 0 0 0 0 0 0 0 0 0 0 0 0 0 0 0
21 16 22 2 1 0 4 0 0 0 0 0 0 0 0 0 0 0 0 0 0 0 0 0 0 0 0 0 0 0 0 0 0 0 0 0 0 0 0 0 0 0 0 0
5 3 0 8 7 10 24 13 5 0 0 0 0 0 0 1 1 0 0 0 0 0 0 0 0 0 0 0 0 0 0 0 0 0 0 0 0 0 0 0 0 0 0 0
0 3 3 5 10 11 25 23 21 12 4 1 2 0 0 0 0 0 0 0 0 0 0 0 0 0 0 0 0 0 0 0 0 0 0 0 0 0 0 0 0 0 0 0
2 0 0 0 3 8 6 21 33 17 19 14 60 23 1 0 0 0 0 0 0 0 0 0 0 0 0 0 0 0 0 0 0 0 0 0 0 0 0 0 0 0 0 0
130 47 27 43 0 0 0 16 20 13 37 10 13 5 0 0 0 3 0 0 0 0 0 0 6 0 0 0 0 0 0 0 0 0 0 0 0 0 0 0 0 0 0 0
342 153 108 149 71 13 8 0 20 6 11 3 0 2 45 29 25 44 33 0 0 0 0 0 0 0 0 0 0 0 0 0 0 0 0 0 0 0 0 0 0 0 0 0
42 113 139 205 76 60 92 57 48 36 50 36 16 27 14 72 38 45 50 5 0 1 0 1 0 0 0 0 0 0 0 0 0 0 0 0 0 0 0 0 0 0 0 0
0 0 6 28 36 56 79 77 78 77 79 53 15 12 11 21 67 46 26 8 0 13 4 2 4 7 0 6 0 0 0 0 0 0 0 0 0 0 0 0 0 0 0 0
2 14 11 6 1 3 6 14 50 97 152 65 36 2 3 3 36 0 8 21 3 17 7 3 5 50 35 0 0 0 0 0 0 0 0 0 0 0 0 0 0 0 0 0
4 12 39 13 2 0 0 0 44 79 43 64 83 57 68 77 75 40 39 18 11 4 0 19 16 46 9 1 0 0 0 0 0 0 0 0 0 0 0 0 0 0 0 0
0 14 0 0 0 0 6 14 0 0 56 168 108 93 65 114 98 52 72 34 12 0 0 7 42 9 0 0 0 1 11 0 0 0 0 0 0 0 0 0 0 0 0 0
0 0 0 3 0 0 0 0 0 0 1 110 74 13 41 33 54 39 8 0 0 0 0 9 24 7 2 3 1 31 17 20 27 3 0 0 0 0 0 0 0 0 0 0
0 0 0 4 0 0 0 0 0 0 0 12 4 1 0 1 0 1 4 3 0 15 14 10 20 6 16 10 30 18 7 6 1 0 0 0 0 0 0 0 0 0 0 0
CIN
-16 -1 0 0 -1 -9 -23 -69 -88 -47 -67 -37 -131 -133 -48 -40 -63 -72 -93 -91 -98 -61 -91 -90 -98 -34 -10 -6 -55 -76 -6 -24 -58 -136 -54 -23 -5 -9 -15 -9 -22 -30 -25 -18
-23 -36 0 0 0 0 -3 -97 -110 -54 -22 -30 -68 -41 -73 0 -44 -59 -82 -58 -44 -39 -62 -34 -16 -9 -23 -40 -41 -1 -5 -23 -158 -231 -105 -29 -16 -1 -18 -4 -8 -4 -10 -17
-5 -7 -15 -1 -3 -6 -41 -49 -74 -41 -22 -7 -59 -21 -11 0 -180 -98 -66 -60 -64 -83 -93 -98 -91 -20 0 0 0 -2 -14 -28 -10 -22 -7 -36 -58 -36 -35 -45 -42 -22 -8 -5
-19 -8 -4 -3 0 0 -16 -24 -45 -52 -34 -1 -33 -127 0 0 0 0 -61 -43 0 -97 -82 -70 -72 -49 -36 0 0 -3 -52 -27 -70 -31 -19 -42 -72 -51 -29 -37 -36 -39 -36 -28
0 -7 0 -17 0 -2 -21 -43 -65 -55 -18 -22 -29 -33 -41 0 0 0 0 0 0 0 0 -160 -124 -103 -105 -56 -28 -21 -29 -75 -103 -61 -38 -38 -39 -79 -50 -34 -27 -18 -27 -15
-1 -1 0 0 0 0 -13 -23 -31 -8 -16 -70 -3 -56 0 0 0 0 0 0 0 0 0 0 0 0 0 -94 -62 -39 -30 -22 -25 -41 -82 -106 -84 -30 -44 -44 -31 -12 -22 -10
0 -1 -31 0 0 0 0 -13 -9 -16 -14 -12 0 -6 0 0 0 0 0 0 0 0 0 0 0 0 0 0 0 0 0 0 0 0 0 0 0 0 0 0 -43 -69 -96 -59
0 0 0 0 -8 -68 -162 -19 -19 -5 -7 0 0 0 0 0 0 0 0 0 0 0 0 0 0 0 0 0 0 0 0 0 0 0 0 0 0 0 0 0 0 0 -8 -91
-53 -78 0 0 0 -126 -81 -24 -23 -19 -19 -28 0 0 0 0 0 0 0 0 0 0 0 0 0 0 0 0 0 0 0 0 0 0 0 0 0 0 0 0 0 0 0 0
-25 -8 -5 0 0 0 -72 -58 -43 -44 -34 -35 -4 0 0 0 0 0 0 0 0 0 0 0 0 0 0 0 0 0 0 0 0 0 0 0 0 0 0 0 0 0 0 0
-4 -35 0 -2 0 0 0 0 0 0 0 0 0 0 0 0 0 0 0 0 0 0 0 0 0 0 0 0 0 0 0 0 0 0 0 0 0 0 0 0 0 0 0 0
-1 -40 -24 -24 0 0 0 0 0 0 0 0 0 0 0 0 0 0 0 0 0 0 0 0 0 0 0 0 0 0 0 0 0 0 0 0 0 0 0 0 0 0 0 0
-53 -75 -29 -44 -3 -16 0 0 0 0 0 0 0 0 0 0 0 0 0 0 0 0 0 0 0 0 0 0 0 0 0 0 0 0 0 0 0 0 0 0 0 0 0 0
-7 -44 -37 -41 0 0 0 0 0 0 0 0 0 0 0 0 0 0 0 0 0 0 0 0 0 0 0 0 0 0 0 0 0 0 0 0 0 0 0 0 0 0 0 0
-11 -11 -2 -22 -29 0 -31 -1 0 0 0 0 0 0 0 0 0 0 0 0 0 0 0 0 0 0 0 0 0 0 0 0 0 0 0 0 0 0 0 0 0 0 0 0
-22 -14 0 -11 -31 -5 -1 -1 -2 0 0 0 0 -6 0 -8 -36 0 0 0 0 0 0 0 0 0 0 0 0 0 0 0 0 0 0 0 0 0 0 0 0 0 0 0
0 -20 -81 -57 -52 -31 -9 -2 0 -1 -3 -6 -14 -1 0 0 0 0 0 0 0 0 0 0 0 0 0 0 0 0 0 0 0 0 0 0 0 0 0 0 0 0 0 0
-55 0 0 0 -13 -17 -6 -4 -5 0 -1 -26 -10 -3 0 0 0 0 0 0 0 0 0 0 0 0 0 0 0 0 0 0 0 0 0 0 0 0 0 0 0 0 0 0
-43 -49 -30 -15 0 0 -6 -20 -10 -2 -1 -1 -19 -4 0 0 0 -28 -4 0 0 0 0 0 -3 0 0 0 0 0 0 0 0 0 0 0 0 0 0 0 0 0 0 0
-14 -12 -7 -11 -7 -11 -13 0 -20 -6 -2 0 0 -2 -17 -16 -41 -46 -25 0 0 0 0 0 0 0 0 0 0 0 0 0 0 0 0 0 0 0 0 0 0 0 0 0
-36 -32 -32 -18 -14 -20 -16 -25 -8 -18 -6 0 -5 -16 -12 -42 -27 -43 -30 -24 0 -32 0 -7 0 0 0 0 0 0 0 0 0 0 0 0 0 0 0 0 0 0 0 0
0 -12 -31 -34 -29 -27 -15 -23 -40 -55 -50 -64 -8 -6 -15 -11 -30 -9 -24 -23 -14 -58 -21 -20 -12 -60 0 -39 0 0 0 0 0 0 0 0 0 0 0 0 0 0 0 0
-8 -27 -24 -14 -11 -15 -16 -35 -30 -16 -30 -10 -37 -27 -1 -2 -1 0 -4 -17 -5 -7 -14 -38 -26 -65 -52 0 0 0 0 0 0 0 0 0 0 0 0 0 0 0 0 0
-19 -23 -24 -29 -29 0 0 0 -8 -8 -33 -19 -16 -12 -11 -2 -7 -6 -1 -3 0 -1 0 -19 -58 -87 -46 -20 0 0 0 0 0 0 0 0 0 0 0 0 0 0 0 0
-2 -11 0 0 0 0 -7 -9 0 0 -16 -2 -14 -11 -13 -6 -8 -4 -2 -1 -3 -1 0 -1 -119 -153 0 -1 0 -12 -46 0 -3 0 0 0 0 0 0 0 0 0 0 0
0 0 0 -5 0 0 -3 0 0 0 0 -15 -31 -13 -1 -1 0 0 -1 0 -1 0 0 -13 -5 -6 -7 -7 -11 -27 -9 -42 -55 -88 0 0 0 0 0 0 0 0 0 0
0 0 0 -23 0 0 0 0 0 0 0 -7 -8 0 0 -4 0 -1 -2 -3 0 -47 -70 -30 -4 -3 -8 -19 -24 -14 -42 -66 -28 0 0 0 0 0 0 0 0 0 0 0
Wind_Speed
nan nan nan nan nan nan nan 45 44 45 46 42 nan nan 32 26 33 35 37 39 37 35 34 nan nan nan nan nan 36 nan 30 26 28 34 38 32 25 21 17 15 13 12 12 13
nan nan nan nan nan nan nan 48 50 52 48 25 nan 30 nan nan 30 31 nan 37 40 nan nan 36 nan nan nan nan nan 32 34 nan nan 34 45 36 33 34 32 21 17 15 14 14
nan nan nan nan nan nan 44 52 61 56 48 46 nan nan nan nan nan nan 31 34 38 nan nan nan nan nan nan nan nan nan nan nan nan 30 30 20 26 26 33 32 29 25 19 16
nan nan nan nan nan nan nan 45 68 62 61 55 nan nan nan nan nan nan nan nan nan nan nan nan nan nan nan nan nan nan nan nan nan nan 27 29 30 31 27 27 28 29 28 24
nan nan nan nan nan nan 41 35 54 59 64 nan nan nan nan nan nan nan nan nan nan nan nan nan nan nan nan nan nan nan nan nan nan nan nan nan 24 16 22 23 25 24 26 30
nan nan nan nan nan nan nan 35 43 57 65 nan nan nan nan nan nan nan nan nan nan nan nan nan nan nan nan nan nan nan nan nan nan nan nan nan nan nan nan nan 24 25 23 24
nan nan nan nan nan nan nan nan 37 45 50 nan nan nan nan nan nan nan nan nan nan nan nan nan nan nan nan nan nan nan nan nan nan nan nan nan nan nan nan nan nan nan nan 28
nan nan nan nan nan nan nan nan nan nan nan nan nan nan nan nan nan nan nan nan nan nan nan nan nan nan nan nan nan nan nan nan nan nan nan nan nan nan nan nan nan nan nan nan
25 nan nan nan nan nan nan nan nan nan nan nan nan nan nan nan nan nan nan nan nan nan nan nan nan nan nan nan nan nan nan nan nan nan nan nan nan nan nan nan nan nan nan nan
nan nan nan nan nan nan nan nan nan nan nan nan nan nan nan nan nan nan nan nan nan nan nan nan nan nan nan nan nan nan nan nan nan nan nan nan nan nan nan nan nan nan nan nan
nan nan nan nan nan nan nan nan nan nan nan nan nan nan nan nan nan nan nan nan nan nan nan nan nan nan nan nan nan nan nan nan nan nan nan nan nan nan nan nan nan nan nan nan
nan nan nan nan nan nan nan nan nan nan nan nan nan nan nan nan nan nan nan nan nan nan nan nan nan nan nan nan nan nan nan nan nan nan nan nan nan nan nan nan nan nan nan nan
nan nan nan nan nan nan nan nan nan nan nan nan nan nan nan nan nan nan nan nan nan nan nan nan nan nan nan nan nan nan nan nan nan nan nan nan nan nan nan nan nan nan nan nan
nan nan nan nan nan nan nan nan nan nan nan nan nan nan nan nan nan nan nan nan nan nan nan nan nan nan nan nan nan nan nan nan nan nan nan nan nan nan nan nan nan nan nan nan
nan nan nan nan nan nan nan nan nan nan nan nan nan nan nan nan nan nan nan nan nan nan nan nan nan nan nan nan nan nan nan nan nan nan nan nan nan nan nan nan nan nan nan nan
nan nan nan nan nan nan nan nan nan nan nan nan nan nan nan nan nan nan nan nan nan nan nan nan nan nan nan nan nan nan nan nan nan nan nan nan nan nan nan nan nan nan nan nan
nan nan nan nan nan nan nan nan nan nan nan nan nan nan nan nan nan nan nan nan nan nan nan nan nan nan nan nan nan nan nan nan nan nan nan nan nan nan nan nan nan nan nan nan
nan nan nan nan nan nan nan nan nan nan nan nan nan nan nan nan nan nan nan nan nan nan nan nan nan nan nan nan nan nan nan nan nan nan nan nan nan nan nan nan nan nan nan nan
23 nan nan nan nan nan nan nan nan nan nan nan nan nan nan nan nan nan nan nan nan nan nan nan nan nan nan nan nan nan nan nan nan nan nan nan nan nan nan nan nan nan nan nan
18 23 21 22 nan nan nan nan nan nan nan nan nan nan nan nan nan nan nan nan nan nan nan nan nan nan nan nan nan nan nan nan nan nan nan nan nan nan nan nan nan nan nan nan
nan 22 24 20 nan nan nan nan nan nan nan nan nan nan nan nan nan nan nan nan nan nan nan nan nan nan nan nan nan nan nan nan nan nan nan nan nan nan nan nan nan nan nan nan
nan nan nan nan nan nan nan nan nan nan nan nan nan nan nan nan nan nan nan nan nan nan nan nan nan nan nan nan nan nan nan nan nan nan nan nan nan nan nan nan nan nan nan nan
nan nan nan nan nan nan nan nan nan nan 38 nan nan nan nan nan nan nan nan nan nan nan nan nan nan nan nan nan nan nan nan nan nan nan nan nan nan nan nan nan nan nan nan nan
nan nan nan nan nan nan nan nan nan nan nan nan nan nan nan nan nan nan nan nan nan nan nan nan nan nan nan nan nan nan nan nan nan nan nan nan nan nan nan nan nan nan nan nan
nan nan nan nan nan nan nan nan nan nan nan 23 32 nan nan 46 nan nan nan nan nan nan nan nan nan nan nan nan nan nan nan nan nan nan nan nan nan nan nan nan nan nan nan nan
nan nan nan nan nan nan nan nan nan nan nan 13 nan nan nan nan nan nan nan nan nan nan nan nan nan nan nan nan nan nan nan nan nan nan nan nan nan nan nan nan nan nan nan nan
nan nan nan nan nan nan nan nan nan nan nan nan nan nan nan nan nan nan nan nan nan nan nan nan nan nan nan nan nan nan nan nan nan nan nan nan nan nan nan nan nan nan nan nan
Wind_Direction
nan nan nan nan nan nan nan 218 228 243 256 268 nan nan 266 254 243 247 244 244 247 255 256 nan nan nan nan nan 264 nan 219 225 231 244 217 214 203 234 238 236 239 240 235 224
nan nan nan nan nan nan nan 234 236 238 248 271 nan 262 nan nan 250 247 nan 251 252 nan nan 256 nan nan nan nan nan 254 239 nan nan 235 214 208 199 211 225 226 227 231 225 235
nan nan nan nan nan nan 222 239 243 230 238 256 nan nan nan nan nan nan 252 248 253 nan nan nan nan nan nan nan nan nan nan nan nan 232 233 228 199 215 220 218 219 221 216 220
nan nan nan nan nan nan nan 242 239 242 244 249 nan nan nan nan nan nan nan nan nan nan nan nan nan nan nan nan nan nan nan nan nan nan 233 234 223 215 216 223 220 226 225 219
nan nan nan nan nan nan 213 229 248 244 243 nan nan nan nan nan nan nan nan nan nan nan nan nan nan nan nan nan nan nan nan nan nan nan nan nan 233 224 216 224 225 223 229 225
nan nan nan nan nan nan nan 231 247 245 247 nan nan nan nan nan nan nan nan nan nan nan nan nan nan nan nan nan nan nan nan nan nan nan nan nan nan nan nan nan 239 235 228 233
nan nan nan nan nan nan nan nan 243 254 248 nan nan nan nan nan nan nan nan nan nan nan nan nan nan nan nan nan nan nan nan nan nan nan nan nan nan nan nan nan nan nan nan 237
nan nan nan nan nan nan nan nan nan nan nan nan nan nan nan nan nan nan nan nan nan nan nan nan nan nan nan nan nan nan nan nan nan nan nan nan nan nan nan nan nan nan nan nan
239 nan nan nan nan nan nan nan nan nan nan nan nan nan nan nan nan nan nan nan nan nan nan nan nan nan nan nan nan nan nan nan nan nan nan nan nan nan nan nan nan nan nan nan
nan nan nan nan nan nan nan nan nan nan nan nan nan nan nan nan nan nan nan nan nan nan nan nan nan nan nan nan nan nan nan nan nan nan nan nan nan nan nan nan nan nan nan nan
nan nan nan nan nan nan nan nan nan nan nan nan nan nan nan nan nan nan nan nan nan nan nan nan nan nan nan nan nan nan nan nan nan nan nan nan nan nan nan nan nan nan nan nan
nan nan nan nan nan nan nan nan nan nan nan nan nan nan nan nan nan nan nan nan nan nan nan nan nan nan nan nan nan nan nan nan nan nan nan nan nan nan nan nan nan nan nan nan
nan nan nan nan nan nan nan nan nan nan nan nan nan nan nan nan nan nan nan nan nan nan nan nan nan nan nan nan nan nan nan nan nan nan nan nan nan nan nan nan nan nan nan nan
nan nan nan nan nan nan nan nan nan nan nan nan nan nan nan nan nan nan nan nan nan nan nan nan nan nan nan nan nan nan nan nan nan nan nan nan nan nan nan nan nan nan nan nan
nan nan nan nan nan nan nan nan nan nan nan nan nan nan nan nan nan nan nan nan nan nan nan nan nan nan nan nan nan nan nan nan nan nan nan nan nan nan nan nan nan nan nan nan
nan nan nan nan nan nan nan nan nan nan nan nan nan nan nan nan nan nan nan nan nan nan nan nan nan nan nan nan nan nan nan nan nan nan nan nan nan nan nan nan nan nan nan nan
nan nan nan nan nan nan nan nan nan nan nan nan nan nan nan nan nan nan nan nan nan nan nan nan nan nan nan nan nan nan nan nan nan nan nan nan nan nan nan nan nan nan nan nan
nan nan nan nan nan nan nan nan nan nan nan nan nan nan nan nan nan nan nan nan nan nan nan nan nan nan nan nan nan nan nan nan nan nan nan nan nan nan nan nan nan nan nan nan
317 nan nan nan nan nan nan nan nan nan nan nan nan nan nan nan nan nan nan nan nan nan nan nan nan nan nan nan nan nan nan nan nan nan nan nan nan nan nan nan nan nan nan nan
292 308 309 290 nan nan nan nan nan nan nan nan nan nan nan nan nan nan nan nan nan nan nan nan nan nan nan nan nan nan nan nan nan nan nan nan nan nan nan nan nan nan nan nan
nan 295 294 297 nan nan nan nan nan nan nan nan nan nan nan nan nan nan nan nan nan nan nan nan nan nan nan nan nan nan nan nan nan nan nan nan nan nan nan nan nan nan nan nan
nan nan nan nan nan nan nan nan nan nan nan nan nan nan nan nan nan nan nan nan nan nan nan nan nan nan nan nan nan nan nan nan nan nan nan nan nan nan nan nan nan nan nan nan
nan nan nan nan nan nan nan nan nan nan 262 nan nan nan nan nan nan nan nan nan nan nan nan nan nan nan nan nan nan nan nan nan nan nan nan nan nan nan nan nan nan nan nan nan
nan nan nan nan nan nan nan nan nan nan nan nan nan nan nan nan nan nan nan nan nan nan nan nan nan nan nan nan nan nan nan nan nan nan nan nan nan nan nan nan nan nan nan nan
nan nan nan nan nan nan nan nan nan nan nan 260 242 nan nan 245 nan nan nan nan nan nan nan nan nan nan nan nan nan nan nan nan nan nan nan nan nan nan nan nan nan nan nan nan
nan nan nan nan nan nan nan nan nan nan nan 293 nan nan nan nan nan nan nan nan nan nan nan nan nan nan nan nan nan nan nan nan nan nan nan nan nan nan nan nan nan nan nan nan
nan nan nan nan nan nan nan nan nan nan nan nan nan nan nan nan nan nan nan nan nan nan nan nan nan nan nan nan nan nan nan nan nan nan nan nan nan nan nan nan nan nan nan nan